Location: Bazinghen
(50.8246°N, 1.6616°E)
Time: 13:17:17
(UTC+00:00)

SAR-Lupe-2 - Pass Details

Date: 09 April 2020
Orbit: 481 x 485 km, 98.1° (Epoch: 20 May)

Event Time Altitude Azimuth Distance (km) Brightness Sun altitude
Rises 20:14:55 0° 21° (NNE) 2,557 7.4 -14.6°
Reaches altitude 10° 20:17:06 10° 29° (NNE) 1,671 6.3 -14.9°
Maximum altitude 20:20:28 38° 99° (E) 760 4.1 -15.3°
Enters shadow 20:21:21 32° 133° (SE) 852 4.2 -15.4°
